TimeEST,TemperatureF,Dew PointF,Humidity,Sea Level PressureIn,VisibilityMPH,Wind Direction,Wind SpeedMPH,Gust SpeedMPH,PrecipitationIn,Events,Conditions,WindDirDegrees,DateUTC
12:52 AM,41.0,37.0,86,29.54,10.0,SW,6.9,21.9,N/A,,Overcast,220,2013-02-27 05:52:00
1:52 AM,39.9,36.0,86,29.56,10.0,SW,10.4,-,N/A,,Overcast,220,2013-02-27 06:52:00
2:23 AM,39.2,35.6,87,29.56,9.0,SW,9.2,-,0.00,Rain,Light Rain,230,2013-02-27 07:23:00
2:52 AM,39.0,35.1,86,29.56,10.0,SW,12.7,19.6,0.00,,Overcast,230,2013-02-27 07:52:00
3:40 AM,39.2,35.6,87,29.57,10.0,SW,10.4,20.7,N/A,,Overcast,220,2013-02-27 08:40:00
3:52 AM,39.0,35.1,86,29.57,10.0,SW,11.5,-,N/A,,Overcast,230,2013-02-27 08:52:00
4:22 AM,39.2,35.6,87,29.57,10.0,SW,12.7,20.7,N/A,,Overcast,220,2013-02-27 09:22:00
4:52 AM,39.0,35.1,86,29.57,10.0,SSW,9.2,19.6,N/A,,Overcast,210,2013-02-27 09:52:00
5:52 AM,39.0,36.0,89,29.60,6.0,SSW,13.8,20.7,N/A,,Overcast,210,2013-02-27 10:52:00
6:39 AM,39.2,35.6,87,29.61,9.0,SW,18.4,24.2,N/A,,Overcast,230,2013-02-27 11:39:00
7:14 AM,37.4,33.8,87,29.62,10.0,SW,11.5,-,N/A,,Overcast,230,2013-02-27 12:14:00
7:34 AM,37.4,35.6,93,29.63,10.0,SSW,11.5,-,0.00,Rain,Light Rain,210,2013-02-27 12:34:00
7:52 AM,37.9,34.0,86,29.65,10.0,SW,9.2,-,0.00,,Overcast,220,2013-02-27 12:52:00
8:52 AM,36.9,34.2,90,29.66,6.0,WSW,12.7,-,0.00,Rain,Light Rain,240,2013-02-27 13:52:00
9:52 AM,36.3,35.4,97,29.68,7.0,WSW,12.7,-,0.03,Rain,Light Rain,250,2013-02-27 14:52:00
10:52 AM,35.6,35.6,100,29.68,7.0,WSW,10.4,-,N/A,Rain-Snow,Light Rain,240,2013-02-27 15:52:00
12:52 PM,37.9,25.5,61,29.67,10.0,WSW,17.3,-,N/A,,Overcast,250,2013-02-27 17:52:00
1:52 PM,35.6,28.4,75,29.67,10.0,WSW,12.7,-,N/A,,Overcast,250,2013-02-27 18:52:00
2:52 PM,36.1,29.3,76,29.67,10.0,WSW,9.2,-,N/A,,Overcast,240,2013-02-27 19:52:00
3:52 PM,36.0,28.0,73,29.69,10.0,WSW,15.0,21.9,N/A,,Overcast,250,2013-02-27 20:52:00
4:52 PM,36.0,28.9,76,29.70,9.0,WSW,10.4,19.6,0.00,Snow,Light Snow,240,2013-02-27 21:52:00
5:14 PM,35.6,28.4,75,29.69,10.0,WSW,15.0,23.0,0.00,,Overcast,250,2013-02-27 22:14:00
5:52 PM,35.1,28.9,78,29.72,6.0,SW,15.0,23.0,0.00,Snow,Light Snow,230,2013-02-27 22:52:00
6:05 PM,35.6,28.4,75,29.71,3.0,WSW,15.0,21.9,0.00,Snow,Light Snow,240,2013-02-27 23:05:00
6:11 PM,35.6,28.4,75,29.71,2.5,WSW,11.5,20.7,0.00,Snow,Light Snow,240,2013-02-27 23:11:00
6:52 PM,34.0,30.0,85,29.73,2.0,SW,9.2,18.4,0.00,Snow,Light Snow,220,2013-02-27 23:52:00
7:11 PM,33.8,30.2,87,29.72,5.0,SW,10.4,-,0.00,Snow,Light Snow,220,2013-02-28 00:11:00
7:52 PM,34.0,30.0,85,29.74,6.0,SW,11.5,-,0.00,Snow,Light Snow,230,2013-02-28 00:52:00
8:03 PM,33.8,30.2,87,29.72,8.0,SW,10.4,-,0.00,Snow,Light Snow,230,2013-02-28 01:03:00
8:52 PM,33.8,30.2,87,29.72,5.0,SW,15.0,20.7,N/A,Snow,Light Snow,230,2013-02-28 01:52:00
9:52 PM,33.1,30.0,89,29.74,2.0,WSW,9.2,-,0.01,Snow,Light Snow,250,2013-02-28 02:52:00
9:59 PM,33.8,30.2,87,29.72,7.0,WSW,8.1,-,0.00,Snow,Light Snow,240,2013-02-28 02:59:00
10:52 PM,33.1,28.0,82,29.73,9.0,WSW,9.2,19.6,0.00,Snow,Light Snow,250,2013-02-28 03:52:00
11:52 PM,33.1,28.0,82,29.73,7.0,WSW,11.5,-,0.00,Snow,Light Snow,250,2013-02-28 04:52:00